DW1384 Weather Reports


time (UTC)temp
C
wind
direction
speed
KPH
gust
KPH
rain 1hr
cm
rain 24hr
cm
rain mn
cm
humidity
%
barometer
mb
20260505124946 17 301 0.0 0.0 0.00 0.00 0.00 70 1007.6
20260505124447 17 305 0.0 0.0 0.00 0.00 0.00 70 1007.6
20260505123946 17 306 0.0 0.0 0.00 0.00 0.00 71 1007.6
20260505123444 17 306 0.0 0.0 0.00 0.00 0.00 69 1007.6
20260505122943 18 303 0.0 0.0 0.00 0.00 0.00 68 1007.7
20260505122442 18 295 0.0 0.0 0.00 0.00 0.00 68 1007.7
20260505122214 18 270 0.0 0.0 0.00 0.00 0.00 69 1007.8
20260505121706 18 348 0.0 0.0 0.00 0.00 0.00 69 1007.8
20260505120942 18 13 0.0 0.0 0.00 0.00 0.00 72 1007.8
20260505120444 18 265 0.0 0.0 0.00 0.00 0.00 72 1007.8
20260505115942 18 1 0.0 0.0 0.00 0.00 0.00 74 1007.9
20260505115443 17 353 0.0 0.0 0.00 0.00 0.00 75 1008.0
20260505114942 17 4 0.0 0.0 0.00 0.00 0.00 76 1008.1
20260505114700 16 270 0.0 0.0 0.00 0.00 0.00 76 1008.1
20260505113942 16 270 0.0 0.0 0.00 0.00 0.00 76 1008.0
20260505113708 16 270 0.0 0.0 0.00 0.00 0.00 76 1008.0
20260505112942 16 270 0.0 0.0 0.00 0.00 0.00 76 1008.1
20260505112443 16 259 0.0 0.0 0.00 0.00 0.00 77 1008.1
20260505111955 16 259 0.0 0.0 0.00 0.00 0.00 77 1008.2
20260505111442 16 259 0.0 0.0 0.00 0.00 0.00 78 1008.2
20260505110942 16 259 0.0 0.0 0.00 0.00 0.00 79 1008.2
20260505110704 16 259 0.0 0.0 0.00 0.00 0.00 79 1008.4
20260505101903 16 8 0.0 0.0 0.00 0.00 0.00 83 1008.8
20260505101353 16 50 0.0 0.0 0.00 0.00 0.00 84 1008.8
20260505100854 16 46 0.0 0.0 0.00 0.00 0.00 84 1008.8
20260505100243 15 43 0.0 0.0 0.00 0.00 0.00 85 1008.8
20260505095720 16 43 0.0 0.0 0.00 0.00 0.00 86 1008.9
20260505095219 15 55 0.0 0.0 0.00 0.00 0.00 87 1008.9
20260505094714 15 58 0.0 0.0 0.00 0.00 0.00 87 1008.9
20260505094157 15 86 0.0 0.0 0.00 0.00 0.00 88 1009.0
20260505093649 15 113 0.0 0.0 0.00 0.00 0.00 88 1009.1
20260505093138 15 234 0.0 0.0 0.00 0.00 0.00 89 1009.0
20260505092628 15 228 0.0 0.0 0.00 0.00 0.00 88 1009.0
20260505092557 14 164 0.0 0.0 0.00 0.00 0.00 88 1009.1
20260505091606 14 162 0.0 0.0 0.00 0.00 0.00 89 1009.2
20260505091053 14 162 0.0 0.0 0.00 0.00 0.00 89 1009.2
20260505090544 14 162 0.0 0.0 0.00 0.00 0.00 89 1009.2
20260505085929 14 162 0.0 0.0 0.00 0.00 0.00 89 1009.2
20260505085420 14 161 0.0 0.0 0.00 0.00 0.00 90 1009.2
20260505084907 14 162 0.0 0.0 0.00 0.00 0.00 90 1009.1
20260505084842 13 161 0.0 0.0 0.00 0.00 0.00 90 1009.1
20260505083846 13 162 0.0 0.0 0.00 0.00 0.00 90 1009.2
20260505083228 13 162 0.0 0.0 0.00 0.00 0.00 90 1009.2
20260505082725 13 162 0.0 0.0 0.00 0.00 0.00 90 1009.3
20260505082223 13 162 0.0 0.0 0.00 0.00 0.00 91 1009.3
20260505081654 13 162 0.0 0.0 0.00 0.00 0.00 90 1009.3
20260505081147 13 161 0.0 0.0 0.00 0.00 0.00 90 1009.4
20260505080642 13 161 0.0 0.0 0.00 0.00 0.00 91 1009.3
20260505080143 13 161 0.0 0.0 0.00 0.00 0.00 91 1009.4
20260505075642 13 161 0.0 0.0 0.00 0.00 0.00 91 1009.4
20260505074355 13 161 0.0 0.0 0.00 0.00 0.00 91 1009.5
20260505073627 13 161 0.0 0.0 0.00 0.00 0.00 91 1009.5
20260505073116 13 161 0.0 0.0 0.00 0.00 0.00 91 1009.6
20260505072607 13 163 0.0 0.0 0.00 0.00 0.00 91 1009.5
20260505072053 12 163 0.0 0.0 0.00 0.00 0.00 91 1009.6
20260505071545 12 163 0.0 0.0 0.00 0.00 0.00 91 1009.6
20260505071035 13 163 0.0 0.0 0.00 0.00 0.00 91 1009.5
20260505070522 13 162 0.0 0.0 0.00 0.00 0.00 91 1009.7
20260505065909 13 162 0.0 0.0 0.00 0.00 0.00 91 1009.7
20260505065345 12 163 0.0 0.0 0.00 0.00 0.00 91 1009.3
20260505064700 13 163 0.0 0.0 0.00 0.00 0.00 91 1009.6
20260505064154 12 163 0.0 0.0 0.00 0.00 0.00 91 1009.7
20260505063647 12 163 0.0 0.0 0.00 0.00 0.00 91 1009.8
20260505063142 12 163 0.0 0.0 0.00 0.00 0.00 91 1009.8
20260505062635 12 163 0.0 0.0 0.00 0.00 0.00 91 1009.8
20260505062143 12 163 0.0 0.0 0.00 0.00 0.00 91 1009.8
20260505061625 12 163 0.0 0.0 0.00 0.00 0.00 91 1009.8
20260505061118 12 163 0.0 0.0 0.00 0.00 0.00 91 1009.9
20260505060611 12 163 0.0 0.0 0.00 0.00 0.00 91 1009.8
20260505060119 12 163 0.0 0.0 0.00 0.00 0.00 91 1009.9
20260505055803 12 163 0.0 0.0 0.00 0.00 0.00 91 1009.7
20260505055643 12 163 0.0 0.0 0.00 0.00 0.00 91 1009.8
20260505054547 12 163 0.0 0.0 0.00 0.00 0.00 91 1009.8
20260505054041 12 163 0.0 0.0 0.00 0.00 0.00 91 1009.8
20260505053537 12 163 0.0 0.0 0.00 0.00 0.00 91 1009.8
20260505053031 12 163 0.0 0.0 0.00 0.00 0.00 91 1009.9
20260505052741 12 163 0.0 0.0 0.00 0.00 0.00 91 1009.9
20260505052018 12 163 0.0 0.0 0.00 0.00 0.00 91 1009.8
20260505051512 12 163 0.0 0.0 0.00 0.00 0.00 91 1009.9
20260505051006 12 164 0.0 0.0 0.00 0.00 0.00 91 1009.9
20260505050500 12 164 0.0 0.0 0.00 0.00 0.00 91 1009.9
20260505041627 12 163 0.0 0.0 0.00 0.00 0.00 91 1010.1
20260505041110 12 163 0.0 0.0 0.00 0.00 0.00 91 1010.1
20260505040604 12 163 0.0 0.0 0.00 0.00 0.00 91 1010.2
20260505035842 12 163 0.0 0.0 0.00 0.00 0.00 91 1010.2
20260505035603 12 163 0.0 0.0 0.00 0.00 0.00 91 1010.3
20260505034829 12 163 0.0 0.0 0.00 0.00 0.00 91 1010.3
20260505034547 12 163 0.0 0.0 0.00 0.00 0.00 91 1010.3
20260505033817 12 163 0.0 0.0 0.00 0.00 0.00 91 1010.3
20260505033313 12 163 0.0 0.0 0.00 0.00 0.00 91 1010.3
20260505032806 12 163 0.0 0.0 0.00 0.00 0.00 91 1010.3
20260505032259 12 163 0.0 0.0 0.00 0.00 0.00 91 1010.5
20260505031753 12 163 0.0 0.0 0.00 0.00 0.00 91 1010.5
20260505031248 12 163 0.0 0.0 0.00 0.00 0.00 91 1010.5
20260505031001 12 163 0.0 0.0 0.00 0.00 0.00 91 1010.5
20260505030454 12 163 0.0 0.0 0.00 0.00 0.00 91 1010.5
20260505025730 12 163 0.0 0.0 0.00 0.00 0.00 91 1010.6
20260505025223 12 163 0.0 0.0 0.00 0.00 0.00 91 1010.7
20260505024717 12 163 0.0 0.0 0.00 0.00 0.00 91 1010.6
20260505024211 12 163 0.0 0.0 0.00 0.00 0.00 91 1010.7
20260505023933 12 163 0.0 0.0 0.00 0.00 0.00 91 1010.7
20260505023159 12 163 0.0 0.0 0.00 0.00 0.00 91 1010.7
20260505022654 12 163 0.0 0.0 0.00 0.00 0.00 91 1010.8
20260505022407 12 163 0.0 0.0 0.00 0.00 0.00 91 1010.7
20260505021641 12 163 0.0 0.0 0.00 0.00 0.00 91 1010.8
20260505021137 12 163 0.0 0.0 0.00 0.00 0.00 91 1010.8
20260505020636 12 163 0.0 0.0 0.00 0.00 0.00 90 1010.8
20260505020136 12 163 0.0 0.0 0.00 0.00 0.00 90 1010.7
20260505015633 12 163 0.0 0.0 0.00 0.00 0.00 90 1010.8
20260505015133 12 163 0.0 0.0 0.00 0.00 0.00 90 1010.7
20260505014632 12 163 0.0 0.0 0.00 0.00 0.00 90 1010.9
20260505014130 12 163 0.0 0.0 0.00 0.00 0.00 90 1010.9
20260505013631 12 163 0.0 0.0 0.00 0.00 0.00 91 1010.9
20260505013354 12 163 0.0 0.0 0.00 0.00 0.00 91 1011.0
20260505012629 12 163 0.0 0.0 0.00 0.00 0.00 91 1011.0
20260505012131 12 163 0.0 0.0 0.00 0.00 0.00 90 1011.0
20260505011627 12 163 0.0 0.0 0.00 0.00 0.00 90 1011.0
20260505011127 12 163 0.0 0.0 0.00 0.00 0.00 90 1011.1
20260505010628 12 163 0.0 0.0 0.00 0.00 0.00 90 1011.1
20260505010127 12 163 0.0 0.0 0.00 0.00 0.00 90 1011.1
20260505005625 12 164 0.0 0.0 0.00 0.00 0.00 90 1011.2
20260505005125 12 164 0.0 0.0 0.00 0.00 0.00 90 1011.2
20260505004847 12 164 0.0 0.0 0.00 0.00 0.00 90 1011.2
20260505004125 12 164 0.0 0.0 0.00 0.00 0.00 90 1011.2
20260505003625 12 164 0.0 0.0 0.00 0.00 0.00 90 1011.3
20260505003125 12 164 0.0 0.0 0.00 0.00 0.00 90 1011.3
20260505002626 12 164 0.0 0.0 0.00 0.00 0.00 90 1011.4
20260505002127 12 164 0.0 0.0 0.00 0.00 0.00 90 1011.5
20260505002108 12 164 0.0 0.0 0.00 0.00 0.00 90 1011.5
20260505001121 12 164 0.0 0.0 0.00 0.00 0.00 90 1011.5
20260505000623 12 164 0.0 0.0 0.00 0.00 0.00 90 1011.6
20260505000122 12 164 0.0 0.0 0.00 0.00 0.00 90 1011.6
20260504235622 12 164 0.0 0.0 0.00 0.00 0.00 90 1011.6
20260504235120 12 164 0.0 0.0 0.00 0.00 0.00 90 1011.7
20260504234620 12 164 0.0 0.0 0.00 0.00 0.00 90 1011.8
20260504234121 12 164 0.0 0.0 0.00 0.00 0.00 90 1011.8
20260504233617 12 164 0.0 0.0 0.00 0.00 0.00 90 1011.8
20260504233340 12 164 0.0 0.0 0.00 0.00 0.00 90 1011.8
20260504232619 12 164 0.0 0.0 0.00 0.00 0.00 90 1011.8
20260504232118 12 162 0.0 0.0 0.00 0.00 0.00 90 1011.9
20260504231617 12 95 0.0 0.0 0.00 0.00 0.00 90 1011.9
20260504231118 12 91 0.0 0.0 0.00 0.00 0.00 90 1011.9
20260504230618 12 91 0.0 0.0 0.00 0.00 0.00 90 1011.9
20260504230117 12 91 0.0 0.0 0.00 0.00 0.00 90 1012.0
20260504225617 12 91 0.0 0.0 0.00 0.00 0.00 90 1012.1
20260504225117 12 91 0.0 0.0 0.00 0.00 0.00 90 1012.2
20260504224616 13 91 0.0 0.0 0.00 0.00 0.00 90 1012.2
20260504224113 13 91 0.0 0.0 0.00 0.00 0.00 90 1012.3
20260504223613 13 91 0.0 0.0 0.00 0.00 0.00 90 1012.3
20260504223113 13 91 0.0 0.0 0.00 0.00 0.00 90 1012.3
20260504222611 12 91 0.0 0.0 0.00 0.00 0.00 90 1012.3
20260504222559 13 91 0.0 0.0 0.00 0.00 0.00 89 1012.3
20260504221612 13 91 0.0 0.0 0.00 0.00 0.00 89 1012.4
20260504221111 13 91 0.0 0.0 0.00 0.00 0.00 90 1012.4
20260504220611 13 91 0.0 0.0 0.00 0.00 0.00 90 1012.5
20260504220112 13 91 0.0 0.0 0.00 0.00 0.00 90 1012.5
20260504215611 13 91 0.0 0.0 0.00 0.00 0.00 90 1012.7
20260504215104 13 91 0.0 0.0 0.00 0.00 0.00 89 1012.7
20260504214558 13 91 0.0 0.0 0.00 0.00 0.00 89 1012.5
20260504214544 13 91 0.0 0.0 0.00 0.00 0.00 89 1012.7
20260504213815 13 91 0.0 0.0 0.00 0.00 0.00 89 1012.7
20260504213041 13 91 0.0 0.0 0.00 0.00 0.00 89 1012.7
20260504212537 13 91 0.0 0.0 0.00 0.00 0.00 89 1012.8
20260504212028 13 91 0.0 0.0 0.00 0.00 0.00 89 1012.7
20260504211525 13 91 0.0 0.0 0.00 0.00 0.00 89 1012.9
20260504211238 13 91 0.0 0.0 0.00 0.00 0.00 89 1012.9
20260504210510 13 91 0.0 0.0 0.00 0.00 0.00 89 1013.0
20260504210006 13 91 0.0 0.0 0.00 0.00 0.00 89 1012.9
20260504205459 13 91 0.0 0.0 0.00 0.00 0.00 89 1012.9
20260504204954 13 91 0.0 0.0 0.00 0.00 0.00 89 1012.9
20260504204446 13 91 0.0 0.0 0.00 0.00 0.00 89 1012.9
20260504204207 13 91 0.0 0.0 0.00 0.00 0.00 89 1012.9
20260504203436 13 93 0.0 0.0 0.00 0.00 0.00 89 1012.8
20260504202928 13 93 0.0 0.0 0.00 0.00 0.00 89 1012.9
20260504202422 13 93 0.0 0.0 0.00 0.00 0.00 89 1012.9
20260504202145 13 93 0.0 0.0 0.00 0.00 0.00 89 1012.9
20260504201411 13 93 0.0 0.0 0.00 0.00 0.00 89 1012.9
20260504200904 13 93 0.0 0.0 0.00 0.00 0.00 89 1012.8
20260504200400 13 93 0.0 0.0 0.00 0.00 0.00 88 1012.7
20260504195852 13 93 0.0 0.0 0.00 0.00 0.00 88 1012.7
20260504195346 13 93 0.0 0.0 0.00 0.00 0.00 88 1012.7
20260504194843 13 93 0.0 0.0 0.00 0.00 0.00 88 1012.7
20260504194334 13 93 0.0 0.0 0.00 0.00 0.00 88 1012.7
20260504193828 13 93 0.0 0.0 0.00 0.00 0.00 88 1012.7
20260504193322 13 93 0.0 0.0 0.00 0.00 0.00 88 1012.7
20260504192818 13 93 0.0 0.0 0.00 0.00 0.00 88 1012.7
20260504192310 13 93 0.0 0.0 0.00 0.00 0.00 88 1012.7
20260504192025 13 93 0.0 0.0 0.00 0.00 0.00 88 1012.7
20260504191259 13 93 0.0 0.0 0.00 0.00 0.00 88 1012.5
20260504190753 13 93 0.0 0.0 0.00 0.00 0.00 88 1012.5
20260504190246 13 93 0.0 0.0 0.00 0.00 0.00 88 1012.5
20260504185740 13 93 0.0 0.0 0.00 0.00 0.00 88 1012.7
20260504185503 13 93 0.0 0.0 0.00 0.00 0.00 87 1012.5
20260504184956 14 93 0.0 0.0 0.00 0.00 0.00 87 1012.5
20260504184223 14 93 0.0 0.0 0.00 0.00 0.00 87 1012.5
20260504183717 14 93 0.0 0.0 0.00 0.00 0.00 87 1012.5
20260504183211 14 93 0.0 0.0 0.00 0.00 0.00 87 1012.4
20260504182705 14 92 0.0 0.0 0.00 0.00 0.00 87 1012.4
20260504182158 14 92 0.0 0.0 0.00 0.00 0.00 87 1012.4
20260504181921 14 92 0.0 0.0 0.00 0.00 0.00 87 1012.4
20260504181157 14 92 0.0 0.0 0.00 0.00 0.00 87 1012.5
20260504180654 14 105 0.0 0.0 0.00 0.00 0.00 87 1012.7
20260504180154 14 105 0.0 0.0 0.00 0.00 0.00 87 1012.7
20260504175651 14 105 0.0 0.0 0.00 0.00 0.00 87 1012.7
20260504175148 14 105 0.0 0.0 0.00 0.00 0.00 86 1012.8
20260504174915 14 105 0.0 0.0 0.00 0.00 0.00 87 1012.9
20260504174402 14 105 0.0 0.0 0.00 0.00 0.00 86 1013.0
20260504173646 14 111 0.0 0.0 0.00 0.00 0.00 86 1013.0
20260504173405 14 111 0.0 0.0 0.00 0.00 0.00 86 1013.1
20260504172645 14 111 0.0 0.0 0.00 0.00 0.00 86 1013.0
20260504172140 14 111 0.0 0.0 0.00 0.00 0.00 86 1013.0
20260504171641 14 111 0.0 0.0 0.00 0.00 0.00 86 1013.2
20260504171141 15 111 0.0 0.0 0.00 0.00 0.00 86 1013.2
20260504170639 14 111 0.0 0.0 0.00 0.00 0.00 86 1013.2
20260504170139 14 111 0.0 0.0 0.00 0.00 0.00 86 1013.3
20260504160132 15 128 0.0 0.0 0.00 0.00 0.00 84 1013.1
20260504151124 18 172 0.0 0.0 0.00 0.00 0.00 71 1012.2
20260504150846 19 184 0.0 0.0 0.00 0.00 0.00 62 1011.9
20260504150125 20 247 0.0 0.0 0.00 0.00 0.00 58 1011.9
20260504141118 21 305 0.0 0.0 0.00 0.00 0.00 52 1011.8
20260504140619 21 327 0.0 0.0 0.00 0.00 0.00 52 1011.8
20260504140120 22 294 0.0 0.0 0.00 0.00 0.00 50 1011.7